Waarnemingen

Advertentie
Mijn weer
Tarbes/Ossun, Frankrijk (7621): temperatuur & dauwpunt: 19.02.2018 20:00:00 - 25.02.2018 20:00:00 (CET)Tarbes/Ossun, Frankrijk (7621): temperatuur 5cm: 19.02.2018 20:00:00 - 25.02.2018 20:00:00 (CET)Tarbes/Ossun, Frankrijk (7621): temperatuur -20cm & temperatuur -100cm: 19.02.2018 20:00:00 - 25.02.2018 20:00:00 (CET)Tarbes/Ossun, Frankrijk (7621): windsnelheid & windstoten: 19.02.2018 20:00:00 - 25.02.2018 20:00:00 (CET)Tarbes/Ossun, Frankrijk (7621): windrichting: 19.02.2018 20:00:00 - 25.02.2018 20:00:00 (CET)Tarbes/Ossun, Frankrijk (7621): luchtdruk: 19.02.2018 20:00:00 - 25.02.2018 20:00:00 (CET)Tarbes/Ossun, Frankrijk (7621): zicht: 19.02.2018 20:00:00 - 25.02.2018 20:00:00 (CET)Tarbes/Ossun, Frankrijk (7621): Zonneschijnduur: 19.02.2018 20:00:00 - 25.02.2018 20:00:00 (CET)Tarbes/Ossun, Frankrijk (7621): neerslag: 19.02.2018 20:00:00 - 25.02.2018 20:00:00 (CET)
Datum & Tijd tt [°C] td [°C] tt 5cm [°C] tt -20cm [°C] tt -100cm [°C] ff [km/u] ff [kn] fx [km/u] fx [kn] dd ppp [hPa] vv [km] sd [min] rr [mm]
25.02.2018 20:00:00 5,6 2,2 5,0 6,7 8,4 10 5 29 15 NW 1014,7 9 0 0,0
25.02.2018 19:00:00 5,9 2,4 5,4 6,6 8,4 13 7 25 13 NW 1014,0 10 0 0,0
25.02.2018 18:00:00 6,8 2,7 6,2 6,4 8,4 18 10 36 20 WNW 1012,9 11 43 0,0
25.02.2018 17:00:00 8,9 3,3 9,8 6,2 8,4 26 14 42 23 NW 1012,2 15 60 0,0
25.02.2018 16:00:00 9,8 2,2 15,2 6,0 8,4 26 14 41 22 NW 1011,6 18 60 0,0
25.02.2018 15:00:00 11,3 1,2 18,7 5,8 8,4 24 13 38 21 WNW 1010,8 19 60 0,0
25.02.2018 14:00:00 11,3 1,8 19,8 5,8 8,4 18 10 35 19 W 1010,8 17 60 0,0
25.02.2018 13:00:00 9,3 1,0 17,2 5,7 8,4 22 12 33 18 W 1012,1 16 60 0,0
25.02.2018 12:00:00 7,9 0,4 13,5 5,7 8,5 19 10 31 17 WZW 1012,7 16 60 0,0
25.02.2018 11:00:00 6,5 0,0 8,7 5,8 8,4 20 11 29 16 W 1013,0 15 60 0,0
25.02.2018 10:00:00 5,3 0,3 1,6 5,8 8,5 13 7 24 13 W 1013,6 16 60 0,0
25.02.2018 09:00:00 2,6 0,0 -2,8 5,9 8,5 5 3 11 6 ZZW 1013,9 15 56 0,0
25.02.2018 08:00:00 0,8 -1,9 -4,6 6,0 8,5 10 5 16 8 WZW 1013,5 13 0 0,0
25.02.2018 07:00:00 -0,1 -1,8 -3,5 6,0 8,5 9 5 14 8 ZZW 1013,2 13 0 0,0
25.02.2018 06:00:00 1,6 -0,3 -1,2 6,0 8,5 6 4 9 5 WNW 1012,7 10 0 0,0
25.02.2018 05:00:00 2,2 0,1 0,6 6,1 8,5 8 4 14 7 ZZW 1012,2 12 0 0,0
25.02.2018 04:00:00 2,0 0,5 0,5 6,2 8,5 6 4 9 5 Z 1012,3 9 0 0,0
25.02.2018 03:00:00 1,8 0,0 -1,4 6,2 8,5 8 5 11 6 ZZO 1012,7 8 0 0,0
25.02.2018 02:00:00 0,4 -0,7 -3,7 6,3 8,5 5 3 11 6 Z 1013,0 8 0 0,0
25.02.2018 01:00:00 0,3 -1,1 -3,5 6,4 8,5 6 3 10 5 Z 1013,2 7 0 0,0
25.02.2018 00:00:00 0,7 -1,1 -2,3 6,4 8,5 7 4 8 5 Z 1013,0 9 0 0,0
24.02.2018 23:00:00 1,4 -0,4 -1,8 6,5 8,5 5 3 13 7 ZZO 1012,8 9 0 0,0
24.02.2018 22:00:00 0,7 -0,8 -2,5 6,4 8,5 8 5 10 6 ZZW 1012,8 10 0 0,0
24.02.2018 21:00:00 1,9 -0,4 -2,4 6,4 8,5 4 2 10 5 Z 1011,9 10 0 0,0
24.02.2018 20:00:00 1,7 -1,4 -3,3 6,3 8,5 6 3 8 4 ZZW 1012,0 10 0 0,0
24.02.2018 19:00:00 4,3 -0,9 -1,8 6,2 8,6 3 1 14 8 N 1011,2 13 20 0,0
24.02.2018 18:00:00 6,2 -0,1 6,9 6,0 8,6 10 5 14 8 N 1010,5 14 60 0,0
24.02.2018 17:00:00 6,9 0,1 7,6 5,8 8,5 12 6 18 10 N 1009,7 12 33 0,0
24.02.2018 16:00:00 7,2 -0,3 11,3 5,7 8,6 11 6 23 12 NNO 1009,5 16 39 0,0
24.02.2018 15:00:00 7,6 0,1 15,0 5,5 8,5 10 6 23 13 N 1009,0 13 54 0,0
24.02.2018 14:00:00 7,0 -0,7 16,4 5,4 8,5 11 6 22 12 N 1009,0 13 60 0,0
24.02.2018 13:00:00 6,2 -1,0 16,2 5,4 8,6 8 5 21 11 NNO 1009,5 12 60 0,0
24.02.2018 12:00:00 5,3 -2,3 12,5 5,5 8,6 9 5 20 11 O 1009,6 10 60 0,0
24.02.2018 11:00:00 3,5 -1,5 6,3 5,6 8,6 10 5 16 9 NO 1009,9 10 60 0,0
24.02.2018 10:00:00 1,6 -2,0 -2,2 5,7 8,6 5 3 9 5 ONO 1010,5 9 60 0,0
24.02.2018 09:00:00 -1,5 -2,5 -7,4 5,7 8,6 0 0 9 5 N 1011,0 7 54 0,0
24.02.2018 08:00:00 -4,2 -5,6 -7,7 5,8 8,6 5 3 7 4 Z 1011,0 7 0 0,0
24.02.2018 07:00:00 -3,7 -4,8 -7,3 5,9 8,6 5 3 11 6 ZZO 1010,6 8 0 0,0
24.02.2018 06:00:00 -3,0 -4,3 -7,0 6,0 8,6 5 3 7 4 Z 1010,1 7 0 0,0
24.02.2018 05:00:00 -3,6 -5,0 -6,2 6,0 8,6 5 3 10 5 WZW 1009,8 7 0 0,0
24.02.2018 04:00:00 -1,7 -3,0 -3,6 6,1 8,6 6 3 9 5 ZZW 1009,6 6 0 0,0
24.02.2018 03:00:00 0,2 -1,9 -2,3 6,1 8,6 0 0 4 2 N 1009,5 7 0 0,0
24.02.2018 02:00:00 0,8 -2,1 -1,5 6,1 8,6 2 1 6 4 ZO 1009,4 8 0 0,0
24.02.2018 01:00:00 1,0 -1,4 -0,1 6,2 8,6 3 2 6 4 Z 1009,6 9 0 0,0
24.02.2018 00:00:00 1,3 -1,8 -0,1 6,2 8,6 4 2 9 5 WZW 1009,8 8 0 0,0
23.02.2018 23:00:00 1,4 -1,8 -0,1 6,2 8,6 5 3 8 5 NNO 1009,8 9 0 0,0
23.02.2018 22:00:00 1,7 -1,7 0,4 6,2 8,7 3 2 6 4 WZW 1010,0 9 0 0,0
23.02.2018 21:00:00 2,0 -3,1 1,0 6,2 8,6 3 1 6 4 N 1009,9 9 0 0,0
23.02.2018 20:00:00 2,1 -3,2 0,9 6,1 8,6 3 1 5 3 NO 1010,0 12 0 0,0
23.02.2018 19:00:00 2,4 -3,5 1,3 6,0 8,6 2 1 6 3 N 1009,4 13 0 0,0
23.02.2018 18:00:00 2,8 -3,6 3,7 6,0 8,6 3 1 10 6 NW 1009,2 14 0 0,0
23.02.2018 17:00:00 3,1 -3,5 5,8 5,9 8,6 5 3 13 7 NNW 1009,1 12 0 0,0
23.02.2018 16:00:00 3,3 -3,1 6,3 5,8 8,6 4 2 14 8 ONO 1009,3 11 0 0,0
23.02.2018 15:00:00 3,0 -3,2 6,9 5,8 8,7 6 3 21 11 WNW 1009,8 11 0 0,0
23.02.2018 14:00:00 2,9 -2,8 7,7 5,8 8,6 10 6 20 11 WNW 1010,0 11 31 0,0
23.02.2018 13:00:00 3,0 -2,1 4,6 5,8 8,7 9 5 20 11 NW 1010,3 11 11 0,0
23.02.2018 12:00:00 1,5 -2,8 3,3 5,9 8,7 13 7 23 12 W 1011,0 10 0 0,0
23.02.2018 11:00:00 1,1 -3,0 0,9 6,0 8,6 12 6 22 12 W 1011,2 11 0 0,0
23.02.2018 10:00:00 0,5 -2,7 -0,7 6,1 8,7 8 5 17 9 WZW 1011,2 12 0 0,0
23.02.2018 09:00:00 -0,9 -2,3 -6,2 6,2 8,7 10 5 16 9 ZZW 1011,3 9 0 0,0
23.02.2018 08:00:00 -3,3 -5,6 -7,0 6,3 8,7 10 5 12 7 ZZW 1011,7 8 0 0,0
23.02.2018 07:00:00 -2,2 -3,8 -6,0 6,4 8,6 7 4 16 8 ZZO 1011,5 8 0 0,0
23.02.2018 06:00:00 -1,6 -3,0 -4,7 6,5 8,6 10 6 16 9 ZW 1011,2 9 0 0,0
23.02.2018 05:00:00 -2,4 -3,8 -7,3 6,6 8,7 6 3 9 5 Z 1011,3 9 0 0,0
23.02.2018 04:00:00 -3,0 -3,8 -7,6 6,8 8,7 6 4 10 6 ZZO 1011,7 9 0 0,0
23.02.2018 03:00:00 -2,3 -3,6 -7,5 6,9 8,7 7 4 11 6 ZZO 1012,2 9 0 0,0
23.02.2018 02:00:00 -2,3 -3,6 -7,5 7,0 8,7 7 4 9 5 ZZO 1012,3 8 0 0,0
23.02.2018 01:00:00 -1,6 -4,0 -6,6 7,1 8,7 6 3 10 5 Z 1012,6 11 0 0,0
23.02.2018 00:00:00 -1,2 -3,4 -5,3 7,2 8,6 5 3 14 8 Z 1012,9 12 0 0,0
22.02.2018 23:00:00 0,6 -3,7 -4,1 7,3 8,6 10 6 19 11 W 1012,9 11 0 0,0
22.02.2018 22:00:00 0,6 -3,9 -4,6 7,4 8,6 10 6 22 12 WZW 1013,0 13 0 0,0
22.02.2018 21:00:00 -0,4 -3,9 -4,3 7,4 8,6 9 5 20 11 ZW 1013,4 13 0 0,0
22.02.2018 20:00:00 1,8 -4,1 -2,7 7,4 8,6 9 5 22 12 WZW 1012,8 13 0 0,0
22.02.2018 19:00:00 2,7 -4,1 -0,9 7,3 8,6 12 6 23 13 W 1012,2 14 14 0,0
22.02.2018 18:00:00 4,5 -3,5 4,2 7,3 8,7 17 9 39 21 W 1011,6 15 60 0,0
22.02.2018 17:00:00 5,7 -3,9 6,1 7,1 8,6 18 10 33 18 WNW 1011,1 19 60 0,0
22.02.2018 16:00:00 6,2 -3,7 12,7 7,0 8,6 23 12 44 24 WNW 1011,0 12 60 0,0
22.02.2018 15:00:00 6,7 -2,7 14,4 7,0 8,6 20 11 39 21 W 1011,4 11 60 0,0
22.02.2018 14:00:00 5,9 -3,0 13,7 6,9 8,6 22 12 39 21 W 1012,0 9 60 0,0
22.02.2018 13:00:00 5,6 -1,1 11,9 7,0 8,6 23 13 42 23 W 1012,5 8 60 0,0
22.02.2018 12:00:00 4,5 -3,5 9,8 7,0 8,6 27 15 45 25 WZW 1013,3 7 60 0,0
22.02.2018 11:00:00 3,6 -2,0 4,9 7,1 8,6 22 12 37 20 W 1013,7 6 60 0,0
22.02.2018 10:00:00 1,7 -1,0 1,7 7,2 8,6 20 11 31 17 W 1014,3 7 39 0,0
22.02.2018 09:00:00 0,8 -1,0 -0,1 7,3 8,6 17 9 25 13 W 1014,5 5 5 0,0
22.02.2018 08:00:00 0,1 -1,3 -0,7 7,4 8,6 16 8 22 12 WZW 1014,3 4,9 0 0,0
22.02.2018 07:00:00 0,0 -1,4 -1,4 7,5 8,6 11 6 22 12 WZW 1014,5 5 0 0,0
22.02.2018 06:00:00 0,2 -1,2 -0,3 7,6 8,6 12 7 20 11 W 1014,5 5 0 0,0
22.02.2018 05:00:00 0,6 -1,2 0,2 7,7 8,6 14 8 22 12 W 1014,6 6 0 0,0
22.02.2018 04:00:00 1,1 -0,8 -0,6 7,8 8,6 13 7 19 10 W 1014,6 7 0 0,0
22.02.2018 03:00:00 0,9 -1,3 - - - 9 5 13 7 W 1015,0 8 - 0,0
22.02.2018 02:00:00 1,5 -0,6 0,8 8,0 8,6 5 3 13 7 W 1015,2 8 0 0,0
22.02.2018 01:00:00 1,7 -0,6 1,0 8,0 8,6 9 5 14 7 NW 1015,5 9 0 0,0
22.02.2018 00:00:00 2,3 -0,5 -0,4 8,1 8,6 10 5 18 10 NW 1015,8 11 0 0,0
21.02.2018 23:00:00 2,2 -0,9 -0,4 8,2 8,6 6 4 15 8 W 1016,1 13 0 0,0
21.02.2018 22:00:00 2,3 -1,0 0,0 8,3 8,6 8 5 16 8 WNW 1016,4 16 0 0,0
21.02.2018 21:00:00 2,9 -0,6 0,1 8,3 8,6 8 4 15 8 WNW 1016,2 20 0 0,0
21.02.2018 20:00:00 3,3 -0,7 0,0 8,3 8,6 7 4 16 9 WNW 1016,0 25 0 0,0
21.02.2018 19:00:00 4,6 -0,6 3,8 8,2 8,6 10 5 21 11 NW 1015,4 29 0 0,0
21.02.2018 18:00:00 5,2 -0,6 5,0 8,2 8,6 16 9 26 14 NW 1015,0 30 4 0,0
21.02.2018 17:00:00 6,5 -1,2 7,2 8,1 8,6 17 9 34 18 NW 1014,5 33 44 0,0
21.02.2018 16:00:00 6,3 -0,2 7,3 8,0 8,6 16 9 27 15 W 1014,5 49 33 0,0
21.02.2018 15:00:00 6,0 -0,7 8,2 7,9 8,6 16 9 31 17 WNW 1014,9 47 34 0,0
21.02.2018 14:00:00 7,0 0,0 13,6 7,9 8,6 13 7 22 12 NW 1015,3 20 55 0,0
21.02.2018 13:00:00 5,8 -0,3 7,1 7,9 8,6 8 4 14 8 N 1015,8 51 43 0,0
21.02.2018 12:00:00 3,9 0,4 5,5 8,0 8,6 3 1 16 9 N 1016,9 36 0 0,0
21.02.2018 11:00:00 3,6 1,6 4,0 8,0 8,6 11 6 29 16 N 1017,1 20 0 0,0
21.02.2018 10:00:00 4,0 3,0 3,9 8,1 8,6 21 11 35 19 N 1016,5 36 0 0,0
21.02.2018 09:00:00 4,0 3,0 3,7 8,1 8,6 22 12 38 20 N 1015,8 17 0 0,6
21.02.2018 08:00:00 4,6 3,9 4,3 8,2 8,6 17 9 27 14 WNW 1015,4 5 0 0,4
21.02.2018 07:00:00 4,9 3,7 4,3 8,3 8,6 20 11 26 14 W 1015,4 37 0 0,0
21.02.2018 06:00:00 4,9 3,7 4,5 8,3 8,6 14 7 29 16 N 1015,2 16 0 0,0
21.02.2018 05:00:00 4,9 4,0 4,5 8,4 8,6 16 9 41 22 NNW 1014,7 17 0 2,0
21.02.2018 04:00:00 6,0 4,8 5,4 8,4 8,6 24 13 37 20 NNW 1014,3 12 0 0,6
21.02.2018 03:00:00 6,6 5,7 5,6 8,5 8,6 19 10 40 22 WNW 1014,8 17 0 4,1
21.02.2018 02:00:00 7,4 6,5 6,7 8,5 8,5 10 6 24 13 WNW 1015,0 3,1 0 1,0
21.02.2018 01:00:00 7,5 6,4 6,8 8,5 8,6 17 9 37 20 W 1015,8 20 0 0,8
21.02.2018 00:00:00 7,5 6,6 7,0 8,5 8,5 17 9 29 15 W 1016,8 5 0 1,0
20.02.2018 23:00:00 7,7 6,9 7,2 8,5 8,5 20 11 29 16 W 1017,7 4,1 0 0,4
20.02.2018 22:00:00 7,8 6,9 7,3 8,6 8,6 16 9 31 17 W 1018,5 16 0 0,0
20.02.2018 21:00:00 7,9 7,1 7,4 8,5 8,5 18 10 37 20 W 1019,0 17 0 1,4
20.02.2018 20:00:00 7,9 7,0 7,3 8,5 8,5 23 13 40 22 W 1018,9 7 0 2,0
20.02.2018 19:00:00 8,2 7,0 7,5 8,5 8,5 22 12 39 21 W 1019,0 6 0 1,4
20.02.2018 18:00:00 8,6 6,9 8,1 8,5 8,6 19 11 43 23 W 1018,6 41 0 0,0
20.02.2018 17:00:00 9,0 7,4 10,1 8,4 8,5 20 11 30 16 W 1018,1 58 0 0,0
20.02.2018 16:00:00 8,9 8,1 8,6 8,4 8,5 16 9 36 19 W 1018,0 38 0 0,4
20.02.2018 15:00:00 8,2 7,4 8,5 8,4 8,5 24 13 37 20 NW 1018,5 3,4 0 0,8
20.02.2018 14:00:00 8,7 7,9 8,8 8,4 8,5 18 10 34 19 WNW 1018,8 6 0 1,0
20.02.2018 13:00:00 8,8 8,0 8,5 8,4 8,5 22 12 40 22 W 1019,0 13 0 1,3
20.02.2018 12:00:00 8,5 7,6 8,2 8,4 8,5 19 11 40 21 WZW 1019,1 15 0 2,0
20.02.2018 11:00:00 8,4 7,5 - - - 18 10 39 21 W 1019,3 5 - 5,0
20.02.2018 10:00:00 8,4 7,6 8,0 8,5 8,5 22 12 38 21 W 1018,9 9 0 2,6
20.02.2018 09:00:00 8,5 7,4 - - - 28 15 42 23 W 1018,5 11 - 3,0
20.02.2018 08:00:00 8,5 7,7 7,7 8,5 8,5 14 8 31 17 WZW 1018,2 8 0 2,2
20.02.2018 07:00:00 8,1 7,3 7,7 8,5 8,5 18 10 26 14 WZW 1018,2 11 0 1,4
20.02.2018 06:00:00 8,1 7,3 7,5 8,5 8,5 15 8 23 12 WZW 1018,1 14 0 1,4
20.02.2018 05:00:00 8,0 7,4 7,6 8,5 8,5 13 7 20 11 ZW 1017,9 12 0 1,6
20.02.2018 04:00:00 8,0 7,4 7,6 8,6 8,5 9 5 17 9 WZW 1018,3 12 0 1,4
20.02.2018 03:00:00 8,1 7,5 7,7 8,6 8,5 9 5 25 14 W 1018,4 12 0 1,0
20.02.2018 02:00:00 8,2 7,6 7,8 8,6 8,5 14 7 24 13 W 1018,7 11 0 1,2
20.02.2018 01:00:00 8,4 7,8 8,1 8,6 8,5 16 8 26 14 W 1018,6 16 0 0,7
20.02.2018 00:00:00 8,6 7,8 8,2 8,6 8,5 16 9 27 15 W 1018,5 11 0 1,2
19.02.2018 23:00:00 8,7 7,9 8,2 8,5 8,5 13 7 24 13 W 1018,4 11 0 2,0
19.02.2018 22:00:00 8,8 8,2 8,4 8,6 8,5 15 8 26 14 W 1018,7 11 0 1,8
19.02.2018 21:00:00 9,0 8,4 8,7 8,5 8,5 15 8 24 13 WNW 1018,6 9 0 0,4
19.02.2018 20:00:00 9,1 8,5 8,7 8,5 8,5 14 7 23 12 WNW 1018,5 9 0 0,4

tt = temperatuur
td = dauwpunt
tt 5cm = temperatuur 5cm
tt -20cm = temperatuur -20cm
tt -100cm = temperatuur -100cm
ff = windsnelheid
fx = windstoten
dd = windrichting
ppp = luchtdruk
vv = zicht
sd = Zonneschijnduur
rr = neerslag

Weerstations in de omgeving